This demonstration page uses our WeatherBlox Daily Observations layout. Learn more.

Left ArrowRight Arrow

41.55636, -103.73856

Hourly Observations for August 24, 2021

Temp ( °F °C ) Dew Point ( °F °C ) Humidity (%) Winds ( mph kmh ) Pressure ( in mb ) Visibility ( mi km ) Precip ( " mm )
12:58 am 00:58 Clear 64 18 40 4.3 40 40 SSW 7 11 29.83 1010 10 16 0.00 0.00
1:58 am 01:58 Mostly Clear 66 18.8 39 4.1 38 38 SSW 7 11 29.81 1009 10 16 0.00 0.00
2:58 am 02:58 Mostly Clear 62 16.7 42 5.6 48 48 WNW 6 9 29.83 1010 10 16 0.00 0.00
3:58 am 03:58 Clear 61 16.2 41 4.8 47 47 SSW 9 15 29.82 1010 10 16 0.00 0.00
4:58 am 04:58 Clear 57 14.1 42 5.8 58 58 WSW 7 11 29.84 1010 10 16 0.00 0.00
5:58 am 05:58 Clear 56 13.2 40 4.7 57 57 SW 7 11 29.85 1011 10 16 0.00 0.00
6:58 am 06:58 Mostly Sunny 59 14.9 43 6.3 57 57 NW 7 11 29.88 1012 10 16 0.00 0.00
7:58 am 07:58 Sunny 64 17.6 42 5.3 45 45 W 6 9 29.90 1013 10 16 0.00 0.00
8:58 am 08:58 Sunny 74 23.1 41 5.1 31 31 NNW 6 9 29.88 1012 10 16 0.00 0.00
9:58 am 09:58 Sunny 83 28.2 37 2.6 19 19 N 9 15 29.88 1012 10 16 0.00 0.00
10:58 am 10:58 Sunny 87 30.8 31 -0.5 13 13 N 5 7 29.88 1012 10 16 0.00 0.00
11:58 am 11:58 Sunny 91 32.6 29 -1.6 11 11 SSW 6 9 29.86 1011 10 16 0.00 0.00
12:58 pm 12:58 Partly Cloudy 93 33.8 25 -3.9 9 9 W 13 20 29.86 1011 10 16 0.00 0.00
1:58 pm 13:58 Partly Cloudy 91 32.8 27 -2.7 10 10 N 8 13 29.85 1011 10 16 0.00 0.00
2:58 pm 14:58 Mostly Sunny 93 33.8 27 -2.8 9 9 SSW 5 7 29.85 1011 10 16 0.00 0.00
3:58 pm 15:58 Sunny 92 33.3 27 -2.6 10 10 NNE 8 13 29.83 1010 10 16 0.00 0.00
4:58 pm 16:58 Mostly Sunny 90 32.1 29 -1.6 11 11 NE 14 22 29.86 1011 10 16 0.00 0.00
5:58 pm 17:58 Mostly Sunny 92 33.1 29 -1.9 10 10 NNE 13 20 29.87 1012 10 16 0.00 0.00
6:58 pm 18:58 Sunny 86 29.8 32 -0.1 14 14 NNE 8 13 29.88 1012 10 16 0.00 0.00
7:58 pm 19:58 Clear 79 25.9 41 4.9 26 26 NE 15 24 29.92 1013 10 16 0.00 0.00
8:58 pm 20:58 Mostly Clear 76 24.2 44 6.4 32 32 ENE 15 24 29.96 1014 10 16 0.00 0.00
9:58 pm 21:58 Mostly Cloudy 74 23.1 44 6.5 34 34 E 15 24 29.97 1015 10 16 0.00 0.00
10:58 pm 22:58 Clear 70 20.9 46 8 44 44 E 15 24 29.98 1015 10 16 0.00 0.00
11:58 pm 23:58 Clear 66 18.9 50 9.8 56 56 E 12 19 30.00 1016 10 16 0.00 0.00

Powered by AerisWeather